Sacramento International, CA

11:38 PM PDT on May 23, 2017 (GMT -0700)
Sacramento International

Weather History for KSMF - June, 2013

Change the Weather History Date:

Sunday, June 23, 2013

  Actual Average Record
Temperature  
Mean Temperature 69 °F -  
Max Temperature 80 °F 88 °F 105 °F (1964)
Min Temperature 60 °F 56 °F 48 °F (1955)
Cooling Degree Days 4    
Growing Degree Days 19 (Base 50)    
Moisture  
Dew Point 57 °F    
Average Humidity 68    
Maximum Humidity 84    
Minimum Humidity 42    
Precipitation  
Precipitation 0.00 in - - ()
Sea Level Pressure  
Sea Level Pressure 29.78 in    
Wind  
Wind Speed 13 mph (South)    
Max Wind Speed 17 mph    
Max Gust Speed 22 mph    
Visibility 10 miles    
Events      
Averages and records for this station are not official NWS values.
T = Trace of Precipitation, MM = Missing Value Source: NWS Daily Summary

Daily Weather History Graph

Daily Weather History Graph

Search for Another Location

Airport or City:

Trip Planner

Search our weather history database for the weather conditions in past years. The results will help you decide how hot, cold, wet, or windy it might be!

Date:

Astronomy

Jun. 23, 2013 Rise Set
Actual Time 5:42 AM PDT 8:34 PM PDT
Civil Twilight 5:10 AM PDT 9:06 PM PDT
Nautical Twilight 4:30 AM PDT 9:47 PM PDT
Astronomical Twilight 3:44 AM PDT 10:33 PM PDT
Moon 8:52 PM PDT (6/23) 6:05 AM PDT (6/23)
Length of Visible Light 15h 56m
Length of Day
14h 52m
Full, 100% of the Moon is Illuminated
Jun 23
Full
Jun 29
Last Quarter
Jul 8
New
Jul 15
First Quarter
Jul 22
Full

Hourly Weather History & Observations

Time (PDT) Temp. Dew Point Humidity Pressure Visibility Wind Dir Wind Speed Gust Speed Precip Events Conditions
12:53 AM 68.0 °F 52.0 °F 56% 29.76 in 10.0 mi SSE 10.4 mph - N/A   Clear
1:53 AM 64.9 °F 53.1 °F 65% 29.75 in 10.0 mi SSE 9.2 mph - N/A   Clear
2:53 AM 64.0 °F 54.0 °F 70% 29.75 in 10.0 mi South 11.5 mph - N/A   Clear
3:53 AM 62.1 °F 54.0 °F 75% 29.74 in 10.0 mi SSE 13.8 mph - N/A   Clear
4:53 AM 61.0 °F 54.0 °F 78% 29.75 in 10.0 mi SSE 11.5 mph - N/A   Clear
5:53 AM 60.1 °F 54.0 °F 80% 29.75 in 10.0 mi SSE 12.7 mph 21.9 mph N/A   Clear
6:53 AM 61.0 °F 54.0 °F 78% 29.75 in 10.0 mi SSE 16.1 mph - N/A   Clear
7:53 AM 63.0 °F 55.0 °F 75% 29.77 in 10.0 mi SSE 16.1 mph - N/A   Clear
8:53 AM 64.9 °F 55.0 °F 70% 29.78 in 10.0 mi SSE 15.0 mph - N/A   Clear
9:53 AM 66.9 °F 55.9 °F 68% 29.80 in 10.0 mi SSE 12.7 mph - N/A   Clear
10:53 AM 69.1 °F 57.0 °F 65% 29.81 in 10.0 mi SSE 13.8 mph - N/A   Clear
11:35 AM 69.8 °F 57.2 °F 64% 29.82 in 10.0 mi South 16.1 mph 21.9 mph 0.00 in   Scattered Clouds
11:53 AM 69.1 °F 57.0 °F 65% 29.82 in 10.0 mi South 10.4 mph - 0.00 in   Scattered Clouds
12:53 PM 71.1 °F 57.0 °F 61% 29.81 in 10.0 mi South 15.0 mph - N/A   Partly Cloudy
1:53 PM 78.1 °F 53.1 °F 42% 29.78 in 10.0 mi SSE 9.2 mph - N/A   Clear
2:53 PM 75.9 °F 59.0 °F 56% 29.78 in 10.0 mi SSW 15.0 mph - N/A   Mostly Cloudy
3:53 PM 75.9 °F 59.0 °F 56% 29.78 in 10.0 mi SW 15.0 mph - N/A   Overcast
4:53 PM 73.9 °F 60.1 °F 62% 29.78 in 10.0 mi SW 16.1 mph - N/A   Mostly Cloudy
5:53 PM 72.0 °F 60.1 °F 66% 29.78 in 10.0 mi SSW 17.3 mph - N/A   Mostly Cloudy
6:53 PM 72.0 °F 60.1 °F 66% 29.77 in 10.0 mi South 16.1 mph - N/A   Mostly Cloudy
7:53 PM 71.1 °F 60.1 °F 68% 29.77 in 10.0 mi South 16.1 mph 21.9 mph N/A   Mostly Cloudy
8:53 PM 68.0 °F 59.0 °F 73% 29.77 in 10.0 mi SSW 15.0 mph - N/A   Mostly Cloudy
9:53 PM 64.9 °F 59.0 °F 81% 29.78 in 10.0 mi South 12.7 mph - N/A   Scattered Clouds
10:53 PM 64.0 °F 57.9 °F 80% 29.78 in 10.0 mi South 16.1 mph - N/A   Scattered Clouds
11:53 PM 63.0 °F 57.9 °F 84% 29.78 in 10.0 mi South 11.5 mph - N/A   Scattered Clouds